{"data":{"norad_id":57623,"intl_designator":"2023-119X","name":"STARLINK-30100","alt_names":[],"object_type":"PAYLOAD","status":"ACTIVE","operator":null,"country":"US","launch_date":"2023-08-11","launch_site_code":"AFETR","launch_vehicle":null,"mission":null,"orbit_class":"UNKNOWN","rcs_meters":null,"size_class":null,"mass_kg":null,"dimensions":null,"purposes":["comms"],"wikipedia_slug":null,"has_3d_model":false,"image_url":null,"decayed_at":null,"tle_current":{"epoch":"2026-05-24T23:30:50.868288Z","epoch_age_seconds":72983,"freshness":"FRESH","line1":"1 57623U 23119X   26144.97975542 -.00001659  00000+0 -50784-4 0  9994","line2":"2 57623  43.0031  10.7582 0000938 249.8518 110.2233 15.27572938154759","mean_motion":15.27572938,"eccentricity":9.38e-5,"inclination_deg":43.0031,"raan_deg":10.7582,"arg_perigee_deg":249.8518,"mean_anomaly_deg":110.2233,"bstar":-5.0784e-5,"rev_number":15475,"period_min":94.267184510701,"perigee_km":482.42666105033,"apogee_km":483.71382352899,"semimajor_km":6861.2072422897,"source":"CELESTRAK","updated_at":"2026-05-25T13:38:18.361432Z"}}}